sat.trackr.live / text

‹ back to catalog

YAOGAN-39 04C

NORAD 58145 · 2023-163E

PAYLOAD ACTIVE UNKNOWN

§ Identity

Operator
Country
PRC
Launch date
2023-10-23
Launch site
XICLF
Launch vehicle
Mass (kg)
RCS (m²)

External: N2YO · Heavens-Above · Gunter

§ Orbital elements

Epoch: 2026-05-25T03:58:19.051392Z

Period
94.89 min
Inclination
34.9892°
Eccentricity
0.0007495
Mean motion
15.17523634 rev/d
Perigee alt
508.2 km
Apogee alt
518.5 km
Semi-major
6,891.5 km
B*
1.5615e-4
RAAN
152.2430°
Arg perigee
197.5469°
Mean anomaly
162.4986°
Rev number
14,382

§ Raw data

YAOGAN-39 04C1 58145U 23163E   26145.16549828  .00003174  00000+0  15615-3 0  99942 58145  34.9892 152.2430 0007495 197.5469 162.4986 15.17523634143824

JSON: /api/v1/satellites/58145 · /tle

For live sub-satellite position, see the globe view (requires WebGL).

§ Visibility from observer

Set your observer location to see the next 7 days of passes ≥ 10°. The values pass through the URL so the page stays shareable.

No JS? Fill the form by hand. The geolocation button needs JavaScript.